Location: Clatteringshaws Loch
(55.0508°N, 4.2860°W)
Time: 23:55:54
(UTC+01:00)

SR - Visible Passes

Search period start: 19 April 2015 00:00
Search period end: 29 April 2015 00:00
Orbit: 585 x 876 km, 66.7° (Epoch: 19 April)

Date Brightness Start Highest point End Pass type
(mag) Time Alt. Az. Time Alt. Az. Time Alt. Az.
19 Apr ? 00:38:54 10° NW 00:41:54 18° N 00:44:53 10° NE visible
19 Apr ? 02:21:16 10° NW 02:25:10 33° NNE 02:29:07 10° E visible
19 Apr ? 04:03:17 10° NW 04:07:31 62° SW 04:11:52 10° SSE visible
19 Apr ? 22:05:19 10° W 22:09:13 29° NNW 22:12:59 10° NNE visible
19 Apr ? 23:49:36 10° NW 23:52:34 18° N 23:55:30 10° NE visible
20 Apr ? 01:32:28 10° NNW 01:36:00 24° NNE 01:39:36 10° E visible
20 Apr ? 03:14:26 10° NW 03:18:43 78° NE 03:23:07 10° SE visible
20 Apr ? 04:57:11 10° WNW 05:00:23 20° WSW 05:03:35 10° SSW visible
20 Apr ? 21:15:53 10° WSW 21:20:07 41° NW 21:24:12 10° NE visible
20 Apr ? 23:00:05 10° WNW 23:03:14 19° NNW 23:06:21 10° NE visible
21 Apr ? 00:43:33 10° NW 00:46:45 20° NNE 00:50:00 10° ENE visible
21 Apr ? 02:25:38 10° NW 02:29:47 48° NE 02:34:03 10° ESE visible
21 Apr ? 04:07:52 10° NW 04:11:48 35° WSW 04:15:49 10° S visible
21 Apr ? 22:10:29 10° WNW 22:13:58 22° NNW 22:17:23 10° NNE visible
21 Apr ? 23:54:28 10° NW 23:57:27 18° N 00:00:27 10° NE visible
22 Apr ? 01:36:52 10° NW 01:40:44 32° NNE 01:44:41 10° E visible
22 Apr ? 03:18:51 10° NW 03:23:06 63° SW 03:26:48 14° SSE visible
22 Apr ? 05:03:05 10° W 05:04:27 11° WSW 05:05:38 10° SW visible
22 Apr ? 21:20:54 10° W 21:24:46 29° NNW 21:28:32 10° NNE visible
22 Apr ? 23:05:10 10° NW 23:08:07 18° N 23:11:04 10° NE visible
23 Apr ? 00:48:02 10° NNW 00:51:34 24° NNE 00:55:09 10° ENE visible
23 Apr ? 02:30:00 10° NW 02:34:17 77° NE 02:37:26 19° SE visible
23 Apr ? 04:12:43 10° WNW 04:15:58 20° WSW 04:16:48 19° SW visible
23 Apr ? 22:15:39 10° WNW 22:18:48 19° N 22:21:54 10° NE visible
23 Apr ? 23:59:07 10° NW 00:02:19 20° NNE 00:05:33 10° ENE visible
24 Apr ? 01:41:11 10° NW 01:45:21 48° NE 01:48:44 15° ESE visible
24 Apr ? 03:23:25 10° NW 03:27:21 36° WSW 03:28:08 33° SW visible
24 Apr ? 21:26:02 10° WNW 21:29:31 23° NNW 21:32:56 10° NNE visible
24 Apr ? 23:10:01 10° NW 23:13:00 18° N 23:15:59 10° NE visible
25 Apr ? 00:52:24 10° NW 00:56:17 32° NNE 01:00:15 10° E visible
25 Apr ? 02:34:24 10° NW 02:38:39 63° SW 02:39:44 46° S visible
25 Apr ? 04:18:32 10° W 04:19:09 11° W 04:19:09 11° W visible
25 Apr ? 22:20:42 10° NW 22:23:40 18° N 22:26:36 10° NE visible
26 Apr ? 00:03:35 10° NNW 00:07:06 24° NNE 00:10:42 10° ENE visible
26 Apr ? 01:45:32 10° NW 01:49:49 76° NE 01:51:31 37° SE visible
26 Apr ? 03:28:14 10° WNW 03:30:56 20° WSW 03:30:56 20° WSW visible
26 Apr ? 21:31:11 10° WNW 21:34:20 19° NNW 21:37:26 10° NE visible
26 Apr ? 23:14:39 10° NW 23:17:50 20° NNE 23:21:05 10° ENE visible
27 Apr ? 00:56:43 10° NW 01:00:53 47° NE 01:03:24 22° ESE visible
27 Apr ? 02:38:56 10° NW 02:42:50 36° WSW 02:42:50 36° WSW visible
27 Apr ? 22:25:33 10° NW 22:28:32 18° N 22:31:31 10° NE visible
28 Apr ? 00:07:56 10° NW 00:11:48 32° NNE 00:15:23 12° E visible
28 Apr ? 01:49:55 10° NW 01:54:11 64° SW 01:54:49 56° S visible
28 Apr ? 03:33:57 10° W 03:34:15 11° W 03:34:15 11° W visible
28 Apr ? 21:36:13 10° NW 21:39:10 18° N 21:42:07 10° NE visible
28 Apr ? 23:19:05 10° NNW 23:22:37 24° NNE 23:26:13 10° ENE visible
